Location: Newark
(35.2161°N, 26.1013°E)
Time: 13:54:58
(UTC+00:00)

XW-2B - Visible Passes

Search period start: 25 January 2020 00:00
Search period end: 04 February 2020 00:00
Orbit: 507 x 528 km, 97.5° (Epoch: 25 January)

Date Brightness Start Highest point End Pass type
(mag) Time Alt. Az. Time Alt. Az. Time Alt. Az.
25 Jan ? 03:45:24 10° NNE 03:48:50 35° E 03:52:14 10° SSE visible
25 Jan ? 15:56:22 10° S 15:59:56 39° W 16:03:31 10° NNW visible
26 Jan ? 03:31:36 10° NE 03:34:36 23° E 03:37:34 10° SSE visible
27 Jan ? 03:18:07 10° ENE 03:20:20 15° E 03:22:32 10° SE visible
27 Jan ? 04:51:15 10° NNW 04:54:25 27° WNW 04:57:35 10° SW visible
28 Jan ? 04:36:47 10° N 04:40:18 41° WNW 04:43:49 10° SW visible
29 Jan ? 04:22:27 10° N 04:26:10 67° WNW 04:29:51 10° SSW visible
29 Jan ? 16:35:36 10° WSW 16:37:26 13° W 16:39:16 10° WNW visible
30 Jan ? 04:08:15 10° NNE 04:11:59 76° ESE 04:15:41 10° S visible
30 Jan ? 16:20:21 10° SW 16:23:09 20° W 16:25:58 10° NW visible
31 Jan ? 03:54:11 10° NNE 03:57:47 46° E 04:01:22 10° S visible
31 Jan ? 16:05:34 10° SSW 16:08:54 30° W 16:12:15 10° NW visible
01 Feb ? 03:40:15 10° NE 03:43:33 30° E 03:46:50 10° SSE visible
02 Feb ? 03:26:32 10° NE 03:29:18 20° E 03:32:03 10° SE visible
03 Feb ? 03:13:15 10° ENE 03:15:01 13° E 03:16:46 10° ESE visible
03 Feb ? 04:45:51 10° N 04:49:11 31° WNW 04:52:30 10° SW visible
